{"data":{"norad_id":54774,"epoch":"2026-09-19T13:19:03.860256Z","epoch_age_seconds":170929,"freshness":"FRESH","line1":"1 54774U 22175S   26262.55490579 -.00002897  00000+0 -74620-4 0  9996","line2":"2 54774  53.1588 224.3533 0001257  86.7897 273.3250 15.34401029209597","mean_motion":15.34401029,"eccentricity":0.0001257,"inclination_deg":53.1588,"raan_deg":224.3533,"arg_perigee_deg":86.7897,"mean_anomaly_deg":273.325,"bstar":-7.462e-5,"rev_number":20959,"period_min":93.847695145152,"perigee_km":461.84028857021,"apogee_km":463.56007503771,"semimajor_km":6840.837181804,"source":"CELESTRAK","updated_at":"2026-09-21T09:00:33.123091Z"}}